Date String (YYYY-MM-DD hh:mm:ss) UTC,Instrument flags,absolute air pressure of the measurement (hPa),sample flow rate (lpm),inlet stack bypass flow (lpm),air temperature of the measurement (°C),ambient temperature measured by the external sensor (°C),aerosol sample conditioner tube jacket temperature (°C),OPC LED temperature (°C),internal box temperature (°C),relative humidity of the measurement (%),span deviation,mass concentration of particles derived from Lorenz-Mie calculation of OPC scattering (μg/m³),mass concentration of particles derived from Lorenz-Mie calculation of OPC scattering (μg/m³),mass concentration of particles derived from Lorenz-Mie calculation of OPC scattering (μg/m³)
DateTimeUTC,F1_M11,P_M11,Q1_M11,Q2_M11,T1_M11,T2_M11,T3_M11,T4_M11,T5_M11,U1_M11,ZSPAN_M11,X0_M11,X2_M11,X1_M11
2023-07-31 13:00:00,SystemResetWarning,0837.4,5.01,000.00,034.2,028.5,000.0,041.4,032.6,34.9,0000.0,0022.78,0008.28,0005.78
2023-07-31 13:01:00,SystemResetWarning,0837.2,4.98,000.00,034.2,028.7,000.0,041.4,032.6,35.0,0000.1,0023.08,0008.40,0005.82
2023-07-31 13:02:00,SystemResetWarning,0837.2,5.03,000.00,034.3,028.7,000.0,041.5,032.6,35.0,-000.1,0022.96,0008.54,0005.86
2023-07-31 13:03:00,SystemResetWarning,0837.2,4.99,000.00,034.4,028.5,000.0,041.5,032.7,34.7,-000.5,0023.12,0008.60,0005.89
2023-07-31 13:04:00,SystemResetWarning,0837.2,4.99,000.00,034.5,026.8,000.0,041.4,032.6,34.5,-000.4,0022.94,0008.59,0005.92
2023-07-31 13:05:00,SystemResetWarning,0837.2,5.02,000.00,034.5,026.0,000.0,041.3,032.4,34.5,-000.5,0023.45,0008.68,0005.96
2023-07-31 13:06:00,SystemResetWarning,0837.2,4.97,000.00,034.4,026.0,000.0,041.4,032.1,34.9,-001.2,0022.57,0008.70,0006.01
2023-07-31 13:07:00,SystemResetWarning,0837.2,5.02,000.00,034.2,026.4,000.0,041.5,032.1,35.4,-001.2,0022.89,0008.85,0006.08
2023-07-31 13:08:00,SystemResetWarning,0837.2,5.00,000.00,034.3,026.7,000.0,041.5,032.2,35.3,-001.6,0023.45,0008.95,0006.12
2023-07-31 13:09:00,SystemResetWarning,0837.2,5.00,000.00,034.4,027.1,000.0,041.5,032.4,34.8,-001.4,0023.61,0009.05,0006.15
2023-07-31 13:10:00,SystemResetWarning,0837.2,4.98,000.00,034.5,027.4,000.0,041.6,032.6,34.6,-001.8,0024.05,0009.10,0006.18
2023-07-31 13:11:00,SystemResetWarning,0837.3,5.01,000.00,034.6,027.7,000.0,041.6,032.6,34.4,-000.9,0023.69,0009.13,0006.20
2023-07-31 13:12:00,SystemResetWarning,0837.2,5.02,000.00,034.6,027.9,000.0,041.7,032.6,34.3,0000.0,0023.64,0009.09,0006.19
2023-07-31 13:13:00,SystemResetWarning,0837.3,5.00,000.00,034.5,028.2,000.0,041.7,032.6,34.4,-001.0,0024.15,0009.12,0006.22
2023-07-31 13:14:00,SystemResetWarning,0837.4,5.00,000.00,034.5,028.3,000.0,041.8,032.6,34.5,-000.1,0024.13,0009.13,0006.25
2023-07-31 13:15:00,SystemResetWarning,0837.4,5.00,000.00,034.4,028.5,000.0,041.8,032.7,34.5,0001.9,0023.99,0009.26,0006.30
2023-07-31 13:16:00,SystemResetWarning,0837.4,5.00,000.00,034.4,028.6,000.0,041.9,032.7,34.4,0001.6,0024.18,0009.34,0006.32
2023-07-31 13:17:00,SystemResetWarning,0837.4,5.00,000.00,034.3,028.7,000.0,041.9,032.7,34.5,0001.3,0024.25,0009.46,0006.33
2023-07-31 13:18:00,SystemResetWarning,0837.4,4.99,000.00,034.3,028.4,000.0,041.9,032.7,34.5,0000.6,0024.03,0009.53,0006.33
2023-07-31 13:19:00,SystemResetWarning,0837.5,5.00,000.00,034.3,026.8,000.0,041.7,032.5,34.6,0001.1,0023.29,0009.60,0006.36
2023-07-31 13:20:00,SystemResetWarning,0837.4,4.99,000.00,034.2,026.1,000.0,041.6,032.3,35.0,0001.6,0023.60,0009.71,0006.40
2023-07-31 13:21:00,SystemResetWarning,0837.4,5.03,000.00,034.0,026.1,000.0,041.6,032.1,35.6,0002.1,0022.77,0009.77,0006.43
2023-07-31 13:22:00,SystemResetWarning,0837.3,5.00,000.00,034.0,026.5,000.0,041.6,032.2,35.8,0002.5,0022.50,0009.84,0006.45
2023-07-31 13:23:00,SystemResetWarning,0837.3,4.99,000.00,034.1,026.9,000.0,041.6,032.4,35.6,0002.8,0022.66,0009.96,0006.50
2023-07-31 13:24:00,SystemResetWarning,0837.4,5.02,000.00,034.3,027.2,000.0,041.6,032.6,35.3,0002.8,0022.04,0009.99,0006.55
2023-07-31 13:25:00,SystemResetWarning,0837.4,5.00,000.00,034.6,027.5,000.0,041.6,032.7,34.6,0002.5,0022.46,0010.04,0006.58
2023-07-31 13:26:00,SystemResetWarning,0837.5,4.98,000.00,034.7,027.8,000.0,041.6,032.8,34.3,0001.7,0022.43,0010.07,0006.59
2023-07-31 13:27:00,SystemResetWarning,0837.5,5.02,000.00,034.8,028.0,000.0,041.7,032.8,34.2,0001.9,0022.27,0010.02,0006.61
2023-07-31 13:28:00,SystemResetWarning,0837.6,4.99,000.00,034.8,028.3,000.0,041.8,032.8,34.2,0002.0,0022.14,0009.96,0006.61
2023-07-31 13:29:00,SystemResetWarning,0837.7,4.99,000.00,034.8,028.4,000.0,041.9,032.8,34.3,0002.2,0022.68,0010.04,0006.63
2023-07-31 13:30:00,SystemResetWarning,0837.6,5.01,000.00,034.7,028.6,000.0,042.0,032.8,34.3,0002.1,0023.07,0010.03,0006.63
2023-07-31 13:31:00,SystemResetWarning,0837.6,5.01,000.00,034.7,028.7,000.0,042.0,032.8,34.6,0001.2,0023.33,0010.07,0006.65
2023-07-31 13:32:00,SystemResetWarning,0837.7,5.01,000.00,034.6,028.7,000.0,042.1,032.9,34.7,0000.8,0024.36,0010.13,0006.66
2023-07-31 13:33:00,SystemResetWarning,0837.7,4.97,000.00,034.7,027.5,000.0,041.9,032.8,34.8,0000.9,0024.37,0010.12,0006.67
2023-07-31 13:34:00,SystemResetWarning,0837.6,5.02,000.00,034.6,025.8,000.0,041.8,032.5,34.8,0000.5,0024.60,0010.13,0006.69
2023-07-31 13:35:00,SystemResetWarning,0837.6,4.99,000.00,034.5,025.3,000.0,041.7,032.3,34.9,-000.1,0024.71,0010.16,0006.68
2023-07-31 13:36:00,SystemResetWarning,0837.6,5.00,000.00,034.2,025.5,000.0,041.7,032.0,35.6,-000.3,0024.73,0010.20,0006.67
2023-07-31 13:37:00,SystemResetWarning,0837.6,5.01,000.00,034.1,025.9,000.0,041.7,032.1,35.8,0000.3,0025.32,0010.27,0006.67
2023-07-31 13:38:00,SystemResetWarning,0837.6,4.99,000.00,034.3,026.4,000.0,041.7,032.3,35.6,0000.2,0024.99,0010.35,0006.71
2023-07-31 13:39:00,SystemResetWarning,0837.5,5.00,000.00,034.5,026.8,000.0,041.7,032.5,35.2,-000.2,0025.42,0010.44,0006.75
2023-07-31 13:40:00,SystemResetWarning,0837.7,5.01,000.00,034.7,027.2,000.0,041.7,032.7,34.6,-000.0,0025.44,0010.46,0006.83
2023-07-31 13:41:00,SystemResetWarning,0837.6,4.98,000.00,034.8,027.5,000.0,041.8,032.7,34.4,-000.6,0025.47,0010.65,0006.88
2023-07-31 13:42:00,SystemResetWarning,0837.6,5.01,000.00,034.9,027.8,000.0,041.8,032.7,34.3,0000.1,0025.61,0010.77,0006.95
2023-07-31 13:43:00,SystemResetWarning,0837.7,5.01,000.00,034.9,028.0,000.0,041.9,032.7,34.3,0000.3,0025.26,0010.88,0006.99
2023-07-31 13:44:00,SystemResetWarning,0837.6,4.99,000.00,034.8,028.2,000.0,042.0,032.7,34.4,-000.1,0026.32,0011.06,0007.06
2023-07-31 13:45:00,SystemResetWarning,0837.7,4.99,000.00,034.8,028.4,000.0,042.0,032.7,34.5,-000.4,0026.01,0011.12,0007.12
2023-07-31 13:46:00,SystemResetWarning,0837.7,5.00,000.00,034.7,028.5,000.0,042.1,032.8,34.7,-000.7,0026.19,0011.18,0007.20
2023-07-31 13:47:00,SystemResetWarning,0837.7,4.98,000.00,034.6,028.7,000.0,042.1,032.8,35.0,-000.8,0026.25,0011.23,0007.29
2023-07-31 13:48:00,SystemResetWarning,0837.7,5.03,000.00,034.7,028.8,000.0,042.2,032.9,35.1,-001.4,0025.91,0011.30,0007.37
2023-07-31 13:49:00,SystemResetWarning,0837.7,4.99,000.00,034.8,028.8,000.0,042.2,033.0,34.7,-001.8,0026.14,0011.31,0007.45
2023-07-31 13:50:00,SystemResetWarning,0837.6,5.00,000.00,034.9,027.6,000.0,042.0,033.0,34.5,-001.5,0026.51,0011.41,0007.52
2023-07-31 13:51:00,SystemResetWarning,0837.6,5.02,000.00,034.9,026.4,000.0,041.9,032.8,34.4,-001.6,0027.52,0011.54,0007.57
2023-07-31 13:52:00,SystemResetWarning,0837.7,5.00,000.00,034.8,026.2,000.0,041.9,032.5,34.3,-001.3,0027.86,0011.48,0007.60
2023-07-31 13:53:00,SystemResetWarning,0837.7,5.00,000.00,034.5,026.4,000.0,041.9,032.3,34.6,-001.1,0028.68,0011.40,0007.63
2023-07-31 13:54:00,SystemResetWarning,0837.6,4.97,000.00,034.3,026.8,000.0,042.0,032.3,35.1,-001.3,0028.37,0011.36,0007.70
2023-07-31 13:55:00,SystemResetWarning,0837.6,5.03,000.00,034.3,027.1,000.0,042.0,032.5,35.1,-001.8,0027.94,0011.44,0007.74
2023-07-31 13:56:00,SystemResetWarning,0837.6,4.99,000.00,034.4,027.5,000.0,042.0,032.6,34.7,-001.3,0028.60,0011.49,0007.78
2023-07-31 13:57:00,SystemResetWarning,0837.7,5.00,000.00,034.5,027.7,000.0,042.0,032.7,34.6,-000.9,0029.26,0011.47,0007.80
2023-07-31 13:58:00,SystemResetWarning,0837.7,5.02,000.00,034.5,028.0,000.0,042.0,032.7,34.5,-000.2,0029.28,0011.54,0007.79
2023-07-31 13:59:00,SystemResetWarning,0837.7,4.99,000.00,034.5,028.2,000.0,042.0,032.7,34.6,0000.2,0029.35,0011.55,0007.77
